607  
ASUS44 KOUN 270810  
RWROK  
 
WEATHER ROUNDUP FOR OKLAHOMA  
NATIONAL WEATHER SERVICE NORMAN OK  
300 AM CDT MON MAR 27 2017  
 
NOTE: "FAIR" INDICATES FEW OR NO CLOUDS BELOW 12,000 FEET WITH NO  
SIGNIFICANT WEATHER AND/OR S TO VISIBILITY
.  
 
OKZ001>007-009>012-014-015-017-270900-  
NORTHWEST OKLAHOMA AND THE PANHANDLE  
 
CITY SKY/WX TMP DP RH WIND PRES REMARKS
 
GAGE CLOUDY 47 42 83 N10 29.90S  
GUYMON CLEAR 38 37 97 NW10 29.95R WCI 31  
ENID/WOODRING CLOUDY 52 50 93 N21 29.81R  

 
 
OKZ016-021>023-033>039-044-045-270900-  
SOUTHWEST OKLAHOMA  
 
CITY SKY/WX TMP DP RH WIND PRES REMARKS
 
LAWTON/REGL CLEAR 53 48 83 NW6 29.82R  
LAWTON/FT SILL CLEAR 52 49 88 N12 29.81R  
FREDERICK CLEAR 53 46 77 NW15 29.82S  
CLINTON CLOUDY 51 45 79 N20G25 29.86S  
HOBART CLOUDY 53 46 77 N12 29.86S  
ALTUS AFB CLOUDY 52 44 76 N15 29.85F  

 
 
OKZ018>020-024>031-270900-  
CENTRAL OKLAHOMA  
 
CITY SKY/WX TMP DP RH WIND PRES REMARKS
 
OKLAHOMA CITY CLOUDY 54 50 86 NW20G28 29.79R  
OKC/WILEY POST CLOUDY 54 51 90 NW15G25 29.79R  
OKC/TINKER AFB CLOUDY 54 50 87 NW15 29.77R  
STILLWATER CLOUDY 57 52 83 N12 29.76R  
GUTHRIE CLOUDY 54 50 86 N9G22 29.78R  

 
 
OKZ008-013-054>072-270900-  
NORTHEAST OKLAHOMA  
 
CITY SKY/WX TMP DP RH WIND PRES REMARKS
 
TULSA CLOUDY 61 56 83 E9 29.73F  
TULSA/JONES CLOUDY 62 55 77 E7 29.73F  
PONCA CITY CLOUDY 52 48 86 N10 29.79R  
BARTLESVILLE CLOUDY 55 52 89 E6 29.77S  
MUSKOGEE CLOUDY 59 58 96 CALM 29.75R  

 
 
OKZ032-040>043-046>053-073>077-270900-  
SOUTH CENTRAL/SOUTHEAST OKLAHOMA  
 
CITY SKY/WX TMP DP RH WIND PRES REMARKS
 
ARDMORE/DWNTWN CLEAR 61 57 88 CALM 29.77R  
MCALESTER PTCLDY 64 56 75 S10 29.74S  

 
 
 
 
CLICK HERE TO GO TO PREVIOUS BULLETINS.

The Nexlab OK Page Main Text Page